DW7220 Vero Beach FL US current weather conditions

sailwx.info

Wind from 132 at 1 knots gusting 3

Air temperature 28.3° C
Dewpoint 26.1° C

Last reported at 2019-Jul-20 00:00 UTC.
Time now 2019-Jul-20 00:49 UTC

Location: N 27°37' W 080°24'.
View on Google Maps.

See reports from other nearby stations

  
Tides and Currents Weather Stations Pressure Air Temp Water Temp Dewpoint Dewpoint Depression Visibility Wind Speed Wind Dir Waves Ship Positions
date/time (UTC)wind fromknots sea level pressurealtimeterstation pressurevisibilityair tempwater tempwave heightnotes
2019-Jul-20 00:00 132 1 gusting 3 28.3
2019-Jul-19 23:45 094 0 gusting 5 28.3
2019-Jul-19 23:30 094 1 gusting 5 28.9
2019-Jul-19 23:15 082 0 gusting 5 28.9
2019-Jul-19 23:00 101 1 gusting 5 29.4
2019-Jul-19 22:45 098 2 gusting 5 29.4
2019-Jul-19 22:30 089 2 gusting 6 29.4
2019-Jul-19 22:15 044 4 gusting 6 29.4
2019-Jul-19 22:00 072 3 gusting 6 29.4
2019-Jul-19 21:45 101 2 gusting 5 29.4
2019-Jul-19 21:30 068 1 gusting 5 29.4
2019-Jul-19 21:15 129 2 gusting 4 29.4
2019-Jul-19 21:00 124 29.4
2019-Jul-19 20:45 132 2 gusting 5 29.4
2019-Jul-19 20:30 126 0 gusting 4 29.4
2019-Jul-19 20:15 129 2 gusting 5 29.4
2019-Jul-19 20:00 040 1 gusting 3 29.4
2019-Jul-19 19:45 143 2 gusting 6 28.9
2019-Jul-19 19:30 099 2 gusting 4 28.3
2019-Jul-19 19:15 225 28.3
2019-Jul-19 19:00 145 2 gusting 6 27.8
2019-Jul-19 18:45 263 5 gusting 7 28.3
2019-Jul-19 18:30 077 3 gusting 8 30.6
2019-Jul-19 18:15 056 5 gusting 10 30.6
2019-Jul-19 18:02 053 4 gusting 10 31.1
2019-Jul-19 17:47 067 5 gusting 10 31.1
2019-Jul-19 17:17 056 1 gusting 6 31.1
2019-Jul-19 17:01 082 4 gusting 8 31.1
2019-Jul-19 16:46 118 3 gusting 10 31.1
2019-Jul-19 16:31 098 5 gusting 9 30.6
2019-Jul-19 16:17 081 5 gusting 8 30.6
2019-Jul-19 16:01 075 5 gusting 9 31.1
2019-Jul-19 15:46 091 4 gusting 8 30.6
2019-Jul-19 15:31 110 3 gusting 8 30.6
2019-Jul-19 15:17 103 3 gusting 6 30.6
2019-Jul-19 15:03 114 4 gusting 8 30.6
2019-Jul-19 14:46 101 3 gusting 7 30.0
2019-Jul-19 14:31 089 4 gusting 6 30.6
2019-Jul-19 14:16 131 0 gusting 6 30.0
2019-Jul-19 14:01 127 1 gusting 6 30.0
2019-Jul-19 13:45 084 1 gusting 6 30.0
2019-Jul-19 13:32 099 2 gusting 5 30.0
2019-Jul-19 13:15 125 30.0
2019-Jul-19 13:01 135 29.4
2019-Jul-19 12:46 277 28.9
2019-Jul-19 12:30 277 27.2
2019-Jul-19 12:15 277 26.7
2019-Jul-19 12:00 252 26.1
2019-Jul-19 11:45 252 25.6
2019-Jul-19 11:31 252 24.4
2019-Jul-19 11:15 252 23.9
2019-Jul-19 11:00 252 23.3
2019-Jul-19 10:45 252 23.3
2019-Jul-19 10:31 252 23.9
2019-Jul-19 10:16 252 23.9
2019-Jul-19 10:00 252 23.9
2019-Jul-19 09:45 252 23.9
2019-Jul-19 09:30 252 23.9
2019-Jul-19 09:15 251 23.9
2019-Jul-19 09:00 252 23.9
2019-Jul-19 08:45 252 23.9
2019-Jul-19 08:30 252 23.9
2019-Jul-19 08:15 252 24.4
2019-Jul-19 08:00 252 24.4
2019-Jul-19 07:45 252 24.4
2019-Jul-19 07:30 252 24.4
2019-Jul-19 07:15 255 25.0
2019-Jul-19 07:02 153 25.0
2019-Jul-19 06:47 126 25.0
2019-Jul-19 06:32 126 25.0
2019-Jul-19 06:16 126 25.0
2019-Jul-19 06:01 126 25.0
2019-Jul-19 05:46 126 25.0
2019-Jul-19 05:31 126 25.0
2019-Jul-19 05:16 126 25.0
2019-Jul-19 05:01 126 25.6
2019-Jul-19 04:46 126 25.6
2019-Jul-19 04:31 126 25.6
2019-Jul-19 04:01 126 25.6
2019-Jul-19 03:46 126 26.1
2019-Jul-19 03:31 126 26.1
2019-Jul-19 03:01 125 26.1
2019-Jul-19 02:46 127 26.1
2019-Jul-19 02:31 126 26.7
2019-Jul-19 02:30 125 26.7
2019-Jul-19 02:16 127 26.7
2019-Jul-19 01:46 124 27.2
2019-Jul-19 01:16 144 0 gusting 1 27.2
2019-Jul-19 01:00 096 0 gusting 3 27.2
2019-Jul-19 00:45 110 2 gusting 5 27.2
2019-Jul-19 00:30 117 1 gusting 4 27.8
2019-Jul-19 00:15 108 2 gusting 6 27.8
2019-Jul-19 00:01 118 2 gusting 6 28.3
2019-Jul-18 23:31 117 3 gusting 6 29.4
2019-Jul-18 23:16 115 2 gusting 5 29.4
2019-Jul-18 23:02 106 4 gusting 7 29.4
2019-Jul-18 22:31 129 4 gusting 7 30.0
2019-Jul-18 22:15 184 3 gusting 6 30.0
2019-Jul-18 22:00 086 2 gusting 6 30.0
2019-Jul-18 21:45 096 4 gusting 6 30.6
2019-Jul-18 21:30 122 1 gusting 6 30.6
2019-Jul-18 21:15 201 5 gusting 8 30.0
2019-Jul-18 21:00 146 3 gusting 8 30.0
2019-Jul-18 20:47 127 6 gusting 9 30.0
2019-Jul-18 20:32 096 5 gusting 7 30.0
2019-Jul-18 20:17 126 2 gusting 6 30.6
2019-Jul-18 20:02 143 4 gusting 7 30.0
2019-Jul-18 19:46 121 4 gusting 6 29.4
2019-Jul-18 19:31 122 3 gusting 6 28.9
2019-Jul-18 19:16 105 4 gusting 6 28.3
2019-Jul-18 19:01 134 2 gusting 6 28.3
2019-Jul-18 18:46 093 4 gusting 7 28.3
2019-Jul-18 18:31 079 4 gusting 9 28.3
2019-Jul-18 18:15 120 4 gusting 6 28.9
2019-Jul-18 18:01 136 3 gusting 6 28.9
2019-Jul-18 17:46 152 1 gusting 5 28.9
2019-Jul-18 17:31 129 2 gusting 5 28.3
2019-Jul-18 17:16 129 2 gusting 4 28.3
2019-Jul-18 17:01 108 3 gusting 6 27.8
2019-Jul-18 16:46 086 3 gusting 6 27.8
2019-Jul-18 16:31 099 2 gusting 4 27.8
2019-Jul-18 16:16 129 1 gusting 3 27.8
2019-Jul-18 16:01 143 4 gusting 9 27.2
2019-Jul-18 15:46 108 5 gusting 7 27.2
2019-Jul-18 15:31 115 1 gusting 6 28.9
2019-Jul-18 15:15 123 2 gusting 5 28.9
2019-Jul-18 15:00 122 28.9
2019-Jul-18 14:45 205 29.4
2019-Jul-18 14:31 243 28.9
2019-Jul-18 14:02 260 2 gusting 4 28.3
2019-Jul-18 13:47 346 0 gusting 3 28.3
2019-Jul-18 13:31 257 1 gusting 3 28.3
2019-Jul-18 13:15 276 2 gusting 4 27.8
2019-Jul-18 12:45 274 1 gusting 3 27.8
2019-Jul-18 12:30 288 1 gusting 3 26.7
2019-Jul-18 12:15 292 2 gusting 4 26.1
2019-Jul-18 12:00 284 0 gusting 3 25.6
2019-Jul-18 11:45 284 0 gusting 1 25.0
2019-Jul-18 11:30 288 0 gusting 2 24.4
2019-Jul-18 11:15 278 23.9
2019-Jul-18 11:00 278 23.9
2019-Jul-18 10:48 275 23.9
2019-Jul-18 10:33 269 23.9
2019-Jul-18 10:16 267 23.9
2019-Jul-18 10:01 212 23.9
2019-Jul-18 09:46 212 23.9
2019-Jul-18 09:33 212 23.9
2019-Jul-18 09:18 211 23.9
2019-Jul-18 09:01 211 23.9
2019-Jul-18 08:48 212 24.4
2019-Jul-18 08:31 211 24.4
2019-Jul-18 08:16 211 24.4
2019-Jul-18 08:01 214 24.4
2019-Jul-18 07:46 219 24.4
2019-Jul-18 07:31 236 0 gusting 0 24.4
2019-Jul-18 07:16 144 24.4
2019-Jul-18 07:01 139 25.0
2019-Jul-18 06:46 139 24.4
2019-Jul-18 06:32 139 24.4
2019-Jul-18 06:16 139 25.0
2019-Jul-18 06:01 139 25.0
2019-Jul-18 05:47 139 25.0
2019-Jul-18 05:30 253 25.6
2019-Jul-18 05:15 253 25.6
2019-Jul-18 05:01 253 25.6
2019-Jul-18 04:46 254 25.6
2019-Jul-18 04:30 267 1 gusting 6 26.1
2019-Jul-18 04:15 273 1 gusting 2 26.1
2019-Jul-18 04:00 141 26.7
2019-Jul-18 03:45 141 26.7
2019-Jul-18 03:30 196 26.7
2019-Jul-18 03:15 174 27.2
2019-Jul-18 03:00 136 27.2
2019-Jul-18 02:45 136 27.2
2019-Jul-18 02:30 132 0 gusting 1 27.2
2019-Jul-18 02:15 142 27.2
2019-Jul-18 02:00 124 0 gusting 2 27.2
2019-Jul-18 01:45 121 0 gusting 4 27.8
2019-Jul-18 01:30 122 2 gusting 4 27.8
2019-Jul-18 01:15 131 27.8
2019-Jul-18 01:00 129 0 gusting 3 27.8
2019-Jul-18 00:45 138 0 gusting 3 28.3
2019-Jul-18 00:30 119 0 gusting 5 28.3
2019-Jul-18 00:15 094 28.3
2019-Jul-18 00:00 112 5 gusting 7 28.9